AD8BW Weather Reports


time (UTC)temp
F
wind
direction
speed
knots
gust
knots
rain 1hr
in
rain 24hr
in
rain mn
in
humidity
%
barometer
mb
20260503225233 59 269 3.5 12.2 0.00 0.00 0.00 46 1007.5
20260503224233 60 240 3.5 12.2 0.00 0.00 0.00 45 1007.5
20260503223235 60 292 4.3 25.2 0.00 0.00 0.00 45 1007.5
20260503222235 60 236 6.1 23.5 0.00 0.00 0.00 45 1007.5
20260503221235 61 266 4.3 17.4 0.00 0.00 0.00 45 1007.4
20260503220229 60 343 4.3 12.2 0.00 0.00 0.00 45 1007.6
20260503215230 60 182 6.1 25.2 0.00 0.00 0.00 43 1007.5
20260503214229 61 184 4.3 15.6 0.00 0.00 0.00 42 1007.6
20260503213231 61 260 4.3 13.9 0.00 0.00 0.00 43 1007.6
20260503212228 61 261 6.1 13.9 0.00 0.00 0.00 41 1007.4
20260503211228 61 198 4.3 21.7 0.00 0.00 0.00 40 1007.5
20260503210227 61 74 4.3 12.2 0.00 0.00 0.00 42 1007.6
20260503205227 62 266 4.3 20.0 0.00 0.00 0.00 41 1007.6
20260503204228 61 168 4.3 15.6 0.00 0.00 0.00 42 1007.6
20260503203228 61 256 4.3 12.2 0.00 0.00 0.00 43 1007.8
20260503202229 61 195 3.5 9.6 0.00 0.00 0.00 42 1007.7
20260503201227 61 228 6.1 19.1 0.00 0.00 0.00 42 1007.8
20260503200228 61 244 3.5 15.6 0.00 0.00 0.00 41 1008.0
20260503195228 61 175 4.3 13.9 0.00 0.00 0.00 40 1008.0
20260503194226 62 266 4.3 13.9 0.00 0.00 0.00 39 1008.2
20260503193230 62 198 3.5 13.9 0.00 0.00 0.00 43 1008.3
20260503192232 62 275 3.5 12.2 0.00 0.00 0.00 42 1008.3
20260503191224 60 238 6.1 19.1 0.00 0.00 0.00 44 1008.6
20260503190226 60 238 4.3 10.4 0.00 0.00 0.00 45 1008.6
20260503185226 61 15 3.5 10.4 0.00 0.00 0.00 44 1008.9
20260503184227 62 147 4.3 13.9 0.00 0.00 0.00 45 1009.0
20260503183227 60 215 4.3 15.6 0.00 0.00 0.00 45 1009.1
20260503182230 58 163 4.3 13.9 0.00 0.00 0.00 45 1009.3
20260503181226 59 263 4.3 17.4 0.00 0.00 0.00 44 1009.4
20260503180229 59 253 6.1 23.5 0.00 0.00 0.00 43 1009.5
20260503175222 60 223 4.3 20.0 0.00 0.00 0.00 43 1009.5
20260503174218 60 254 4.3 17.4 0.00 0.00 0.00 43 1009.6
20260503173218 60 267 3.5 15.6 0.00 0.00 0.00 44 1009.7
20260503172222 59 262 4.3 13.9 0.00 0.00 0.00 43 1009.9
20260503171219 59 294 4.3 17.4 0.00 0.00 0.00 43 1010.1
20260503170218 58 167 4.3 13.9 0.00 0.00 0.00 44 1010.2
20260503160218 56 168 3.5 12.2 0.00 0.00 0.00 46 1011.1
20260503150211 57 154 3.5 13.9 0.00 0.00 0.00 45 1011.1
20260503140210 54 5 4.3 21.7 0.00 0.00 0.00 46 1011.4
20260503131210 50 189 1.7 7.8 0.00 0.00 0.00 51 1011.7
20260503130210 49 186 1.7 9.6 0.00 0.00 0.00 54 1011.7
20260503120206 43 134 1.7 4.3 0.00 0.00 0.00 60 1011.9
20260503110202 38 208 1.7 9.6 0.00 0.00 0.00 66 1011.9
20260503100155 33 173 0.0 0.0 0.00 0.00 0.00 79 1012.3
20260503090156 33 173 0.0 0.0 0.00 0.00 0.00 79 1012.9
20260503081152 33 173 0.0 0.0 0.00 0.00 0.00 76 1013.1
20260503080151 33 173 0.0 0.0 0.00 0.00 0.00 78 1013.1
20260503072151 34 173 0.0 0.0 0.00 0.00 0.00 79 1013.2
20260503071152 34 173 0.0 0.0 0.00 0.00 0.00 79 1013.2
20260503070152 34 173 0.0 0.0 0.00 0.00 0.00 77 1013.3
20260503060149 34 173 0.0 0.0 0.00 0.00 0.00 78 1013.7
20260503054150 34 173 0.0 0.0 0.00 0.00 0.00 79 1013.8
20260503053150 34 173 0.0 0.0 0.00 0.00 0.00 79 1013.8
20260503052149 35 173 0.0 0.0 0.00 0.00 0.00 78 1013.8
20260503051150 35 173 0.0 0.0 0.00 0.00 0.00 77 1013.9
20260503050149 36 173 0.0 0.0 0.00 0.00 0.00 75 1013.9
20260503045144 37 173 0.0 0.0 0.00 0.00 0.00 73 1013.9
20260503044141 38 173 0.0 0.0 0.00 0.00 0.00 71 1014.0
20260503043143 38 173 0.0 0.0 0.00 0.00 0.00 70 1014.0
20260503042142 38 173 0.0 0.0 0.00 0.00 0.00 70 1014.0
20260503041143 39 173 0.0 1.7 0.00 0.00 0.00 69 1014.1
20260503040144 39 173 0.0 1.7 0.00 0.00 0.00 70 1014.1
20260503035141 39 173 0.0 3.5 0.00 0.00 0.00 69 1014.1
20260503034140 39 207 0.0 1.7 0.00 0.00 0.00 68 1014.1
20260503033143 39 207 0.0 1.7 0.00 0.00 0.00 68 1014.2
20260503032139 39 207 0.0 3.5 0.00 0.00 0.00 68 1014.3
20260503031137 39 292 0.0 0.0 0.00 0.00 0.00 70 1014.3
20260503030136 39 320 0.0 0.0 0.00 0.00 0.00 70 1014.4
20260503025135 38 320 0.0 0.0 0.00 0.00 0.00 71 1014.5
20260503024137 38 337 0.0 0.0 0.00 0.00 0.00 74 1014.5
20260503023136 38 337 0.0 0.0 0.00 0.00 0.00 72 1014.6
20260503022135 38 337 0.0 0.0 0.00 0.00 0.00 71 1014.7
20260503021133 39 337 0.0 0.0 0.00 0.00 0.00 70 1014.6
20260503020135 39 337 0.0 0.0 0.00 0.00 0.00 66 1014.5
20260503015133 39 337 0.0 1.7 0.00 0.00 0.00 66 1014.6
20260503014128 39 337 0.0 1.7 0.00 0.00 0.00 67 1014.6
20260503013127 40 338 0.0 0.0 0.00 0.00 0.00 66 1014.5
20260503012129 40 338 0.0 0.0 0.00 0.00 0.00 63 1014.5
20260503011126 40 338 0.0 0.0 0.00 0.00 0.00 62 1014.4
20260503010131 41 338 0.0 0.0 0.00 0.00 0.00 60 1014.5
20260503005126 41 338 0.0 0.0 0.00 0.00 0.00 59 1014.4
20260503004137 43 338 0.0 0.0 0.00 0.00 0.00 56 1014.3
20260503003126 44 338 0.0 0.0 0.00 0.00 0.00 51 1014.3
20260503002125 44 338 0.0 3.5 0.00 0.00 0.00 50 1014.3
20260503001124 44 334 0.0 3.5 0.00 0.00 0.00 50 1014.2
20260503000123 45 229 0.0 3.5 0.00 0.00 0.00 51 1014.2
20260502235120 45 225 0.0 3.5 0.00 0.00 0.00 50 1014.3
20260502234120 46 335 0.0 3.5 0.00 0.00 0.00 47 1014.3
20260502233122 46 310 0.0 3.5 0.00 0.00 0.00 47 1014.4
20260502232119 46 335 0.0 3.5 0.00 0.00 0.00 48 1014.4
20260502231122 46 323 0.0 4.3 0.00 0.00 0.00 47 1014.5
20260502230115 46 296 1.7 3.5 0.00 0.00 0.00 46 1014.5